ACA228 CYVR-CYYC

Flight info

Callsign ACA228
Flight time N/A
Altitude 35000
Route DAPED DCT PETLI DCT MENBO Q983 NORET IGVEP7
Aircraft B38M/M-SDE1FGHILORVWXY/HB1

Departure

Time N/A
Airport Vancouver International Airport (CYVR)

Arrival

Time 2026-04-30 20:23
Airport Calgary International Airport (CYYC)
Time Latitude Longitude Altitude Speed Heading
2026-04-30 19:34 49.29161 -119.95457 37216 ft 454 kts 81°
2026-04-30 19:35 49.29523 -119.90658 37212 ft 453 kts 81°
2026-04-30 19:35 49.30241 -119.81060 37222 ft 454 kts 81°
2026-04-30 19:36 49.30955 -119.71464 37245 ft 452 kts 81°
2026-04-30 19:36 49.33107 -119.57805 37233 ft 439 kts 60°
2026-04-30 19:37 49.35843 -119.49379 37219 ft 441 kts 61°
2026-04-30 19:37 49.38598 -119.40957 37213 ft 441 kts 61°
2026-04-30 19:38 49.41354 -119.32528 37231 ft 441 kts 60°
2026-04-30 19:38 49.44094 -119.24121 37217 ft 439 kts 61°
2026-04-30 19:39 49.46824 -119.15717 37220 ft 440 kts 61°
2026-04-30 19:39 49.49556 -119.07282 37223 ft 441 kts 61°
2026-04-30 19:40 49.52285 -118.98825 37228 ft 441 kts 61°
2026-04-30 19:40 49.54986 -118.90427 37226 ft 439 kts 61°
2026-04-30 19:41 49.57688 -118.81997 37238 ft 439 kts 61°
2026-04-30 19:41 49.60387 -118.73550 37236 ft 439 kts 61°
2026-04-30 19:42 49.63079 -118.65094 37249 ft 439 kts 61°
2026-04-30 19:42 49.65765 -118.56630 37265 ft 439 kts 61°
2026-04-30 19:43 49.68441 -118.48167 37239 ft 439 kts 61°
2026-04-30 19:44 49.72442 -118.35459 37237 ft 438 kts 62°
2026-04-30 19:44 49.75103 -118.26975 37242 ft 439 kts 62°
2026-04-30 19:45 49.77755 -118.18486 37264 ft 438 kts 62°
2026-04-30 19:45 49.80400 -118.09992 37248 ft 437 kts 62°
2026-04-30 19:46 49.83037 -118.01496 37257 ft 438 kts 62°
2026-04-30 19:46 49.85666 -117.92994 37239 ft 438 kts 62°
2026-04-30 19:47 49.88289 -117.84485 37253 ft 438 kts 62°
2026-04-30 19:47 49.90908 -117.75958 37250 ft 438 kts 62°
2026-04-30 19:48 49.93502 -117.67480 37273 ft 438 kts 62°
2026-04-30 19:48 49.96111 -117.58926 37264 ft 438 kts 62°
2026-04-30 19:49 49.98712 -117.50368 37267 ft 438 kts 62°
2026-04-30 19:49 50.02599 -117.37524 37265 ft 437 kts 62°
2026-04-30 19:50 50.05159 -117.29026 37245 ft 436 kts 62°
2026-04-30 19:50 50.07732 -117.20457 37267 ft 437 kts 62°
2026-04-30 19:51 50.10296 -117.11885 37255 ft 437 kts 62°
2026-04-30 19:51 50.12858 -117.03293 37283 ft 437 kts 63°
2026-04-30 19:52 50.14979 -116.96154 37268 ft 436 kts 63°
2026-04-30 19:52 50.17933 -116.86177 37273 ft 436 kts 63°
2026-04-30 19:53 50.20057 -116.78980 37293 ft 436 kts 63°
2026-04-30 19:53 50.22584 -116.70389 37260 ft 435 kts 63°
2026-04-30 19:54 50.25108 -116.61774 37300 ft 435 kts 63°
2026-04-30 19:54 50.27597 -116.53250 37307 ft 434 kts 63°
2026-04-30 19:55 50.30097 -116.44661 37303 ft 434 kts 63°
2026-04-30 19:55 50.32593 -116.36062 37296 ft 434 kts 63°
2026-04-30 19:56 50.35082 -116.27459 37287 ft 434 kts 63°
2026-04-30 19:56 50.37561 -116.18857 37285 ft 432 kts 63°
2026-04-30 19:57 50.39735 -116.10073 37278 ft 434 kts 68°
2026-04-30 19:57 50.41693 -116.01127 37247 ft 434 kts 68°
2026-04-30 19:58 50.43680 -115.92188 37249 ft 434 kts 68°
2026-04-30 19:58 50.45664 -115.83258 37272 ft 433 kts 68°
2026-04-30 19:59 50.46651 -115.78797 37138 ft 431 kts 68°
2026-04-30 19:59 50.47642 -115.74311 35883 ft 440 kts 68°
2026-04-30 19:59 50.49612 -115.65366 34202 ft 428 kts 68°
2026-04-30 20:00 50.50580 -115.60954 33033 ft 427 kts 68°
2026-04-30 20:00 50.51549 -115.56526 31763 ft 430 kts 68°
2026-04-30 20:00 50.52521 -115.52081 30722 ft 429 kts 69°
2026-04-30 20:00 50.53483 -115.47676 29770 ft 424 kts 69°
2026-04-30 20:01 50.55349 -115.39007 27802 ft 414 kts 69°
2026-04-30 20:01 50.56260 -115.34754 26905 ft 409 kts 69°
2026-04-30 20:01 50.57152 -115.30586 26051 ft 404 kts 69°
2026-04-30 20:02 50.58916 -115.22317 24423 ft 394 kts 69°
2026-04-30 20:02 50.59784 -115.18239 23720 ft 392 kts 69°
2026-04-30 20:03 50.61490 -115.10193 22370 ft 384 kts 69°
2026-04-30 20:03 50.62332 -115.06208 21822 ft 382 kts 69°
2026-04-30 20:03 50.63165 -115.02264 21386 ft 377 kts 69°
2026-04-30 20:03 50.63988 -114.98355 20672 ft 375 kts 69°
2026-04-30 20:04 50.64804 -114.94473 20053 ft 371 kts 69°
2026-04-30 20:04 50.65610 -114.90631 19403 ft 368 kts 70°
2026-04-30 20:04 50.66409 -114.86814 18787 ft 365 kts 70°
2026-04-30 20:05 50.67980 -114.79291 17664 ft 354 kts 70°
2026-04-30 20:05 50.68738 -114.75650 17251 ft 345 kts 70°
2026-04-30 20:05 50.70237 -114.68469 16406 ft 350 kts 69°
2026-04-30 20:06 50.71410 -114.65129 15939 ft 350 kts 49°
2026-04-30 20:06 50.73054 -114.62282 15457 ft 352 kts 46°
2026-04-30 20:06 50.74726 -114.59467 15016 ft 351 kts 45°
2026-04-30 20:06 50.76406 -114.56672 14606 ft 350 kts 45°
2026-04-30 20:07 50.78097 -114.53884 14160 ft 351 kts 45°
2026-04-30 20:07 50.79785 -114.51110 13721 ft 349 kts 45°
2026-04-30 20:07 50.83223 -114.45816 12831 ft 346 kts 43°
2026-04-30 20:08 50.84945 -114.43194 12450 ft 342 kts 43°
2026-04-30 20:08 50.86654 -114.40584 12057 ft 340 kts 43°
2026-04-30 20:08 50.88350 -114.37989 11678 ft 337 kts 43°
2026-04-30 20:08 50.90033 -114.35410 11285 ft 336 kts 43°
2026-04-30 20:09 50.91694 -114.32835 10968 ft 332 kts 45°
2026-04-30 20:09 50.93279 -114.30229 10787 ft 323 kts 45°
2026-04-30 20:09 50.96314 -114.25247 10513 ft 305 kts 44°
2026-04-30 20:10 50.99177 -114.20552 10224 ft 288 kts 44°
2026-04-30 20:10 51.00563 -114.18321 10067 ft 279 kts 38°
2026-04-30 20:10 51.02225 -114.16886 9753 ft 271 kts 12°
2026-04-30 20:11 51.05927 -114.16548 9146 ft 264 kts 360°
2026-04-30 20:11 51.07758 -114.16508 8869 ft 262 kts 359°
2026-04-30 20:11 51.09575 -114.16482 8588 ft 260 kts 359°
2026-04-30 20:12 51.13093 -114.16459 8299 ft 244 kts 359°
2026-04-30 20:12 51.14773 -114.16455 8168 ft 240 kts 359°
2026-04-30 20:12 51.16438 -114.16454 8049 ft 238 kts 359°
2026-04-30 20:13 51.18093 -114.16455 7983 ft 238 kts 359°
2026-04-30 20:13 51.19751 -114.16458 7982 ft 239 kts 359°
2026-04-30 20:13 51.21413 -114.16462 7988 ft 239 kts 359°
2026-04-30 20:13 51.23082 -114.16464 7992 ft 240 kts 359°
2026-04-30 20:14 51.24726 -114.16468 7989 ft 240 kts 359°
2026-04-30 20:14 51.26392 -114.16471 7965 ft 239 kts 359°
2026-04-30 20:14 51.28058 -114.16474 7854 ft 240 kts 359°
2026-04-30 20:14 51.29718 -114.16477 7645 ft 238 kts 359°
2026-04-30 20:15 51.31366 -114.16486 7419 ft 236 kts 358°
2026-04-30 20:15 51.33004 -114.16544 7213 ft 235 kts 357°
2026-04-30 20:15 51.34638 -114.16609 7009 ft 235 kts 358°
2026-04-30 20:15 51.36264 -114.16674 6899 ft 233 kts 358°
2026-04-30 20:16 51.37884 -114.16716 6896 ft 233 kts
2026-04-30 20:16 51.39402 -114.15962 6859 ft 229 kts 35°
2026-04-30 20:16 51.40422 -114.14052 6860 ft 228 kts 68°
2026-04-30 20:16 51.40645 -114.11568 6887 ft 228 kts 101°
2026-04-30 20:17 51.40060 -114.09234 6923 ft 228 kts 123°
2026-04-30 20:17 51.39182 -114.07103 7031 ft 230 kts 124°
2026-04-30 20:17 51.38288 -114.04976 7014 ft 231 kts 124°
2026-04-30 20:17 51.37395 -114.02838 6955 ft 231 kts 124°
2026-04-30 20:18 51.36462 -114.00767 6904 ft 229 kts 135°
2026-04-30 20:18 51.35153 -113.99443 6893 ft 227 kts 160°
2026-04-30 20:18 51.33613 -113.98948 6930 ft 226 kts 177°
2026-04-30 20:18 51.32098 -113.98956 6900 ft 208 kts 182°
2026-04-30 20:19 51.30686 -113.99003 6709 ft 200 kts 181°
2026-04-30 20:19 51.29756 -113.99010 6546 ft 195 kts 180°
2026-04-30 20:19 51.27991 -113.99010 6221 ft 188 kts 180°
2026-04-30 20:19 51.26704 -113.99010 5985 ft 182 kts 180°
2026-04-30 20:20 51.25468 -113.99013 5808 ft 175 kts 180°
2026-04-30 20:20 51.24270 -113.99014 5563 ft 170 kts 180°
2026-04-30 20:20 51.23098 -113.99016 5318 ft 167 kts 180°
2026-04-30 20:20 51.21937 -113.99019 5098 ft 166 kts 180°
2026-04-30 20:21 51.20783 -113.99020 4873 ft 166 kts 180°
2026-04-30 20:21 51.19634 -113.99022 4643 ft 161 kts 180°
2026-04-30 20:21 51.18534 -113.99022 4410 ft 155 kts 180°
2026-04-30 20:21 51.17474 -113.99026 4199 ft 152 kts 179°
2026-04-30 20:22 51.16418 -113.99026 3963 ft 152 kts 179°
2026-04-30 20:22 51.15400 -113.99013 3724 ft 142 kts 178°
2026-04-30 20:22 51.14462 -113.99021 3570 ft 126 kts 179°
2026-04-30 20:22 51.13750 -113.99018 3563 ft 74 kts 179°
2026-04-30 20:23 51.13327 -113.99024 3559 ft 59 kts 180°
2026-04-30 20:23 51.13036 -113.99030 3560 ft 27 kts 186°
2026-04-30 20:23 51.12870 -113.99095 3558 ft 23 kts 204°
2026-04-30 20:23 51.12776 -113.99178 3557 ft 6 kts 211°
2026-04-30 20:24 51.12743 -113.99209 3557 ft 0 kts 211°
2026-04-30 20:24 51.12743 -113.99210 3558 ft 0 kts 211°
2026-04-30 20:24 51.12742 -113.99210 3558 ft 0 kts 211°
2026-04-30 20:25 51.12716 -113.99247 3557 ft 5 kts 236°
2026-04-30 20:25 51.12705 -113.99303 3557 ft 6 kts 262°
2026-04-30 20:26 51.12701 -113.99467 3558 ft 9 kts 269°
2026-04-30 20:26 51.12703 -113.99682 3558 ft 11 kts 270°
2026-04-30 20:26 51.12703 -113.99802 3558 ft 10 kts 271°
2026-04-30 20:27 51.12704 -114.00052 3558 ft 13 kts 270°
2026-04-30 20:27 51.12704 -114.00333 3557 ft 12 kts 269°
2026-04-30 20:28 51.12703 -114.00573 3556 ft 8 kts 276°
2026-04-30 20:28 51.12737 -114.00640 3555 ft 3 kts 350°
2026-04-30 20:29 51.12810 -114.00639 3554 ft 6 kts
2026-04-30 20:30 51.12860 -114.00681 3554 ft 5 kts 285°
2026-04-30 20:30 51.12868 -114.00758 3553 ft 0 kts 279°